Weather History for KMLS - October, 2012

Change the Weather History Date:

Monday, October 15, 2012

  Actual Average Record
Temperature  
Mean Temperature 58 °F 47 °F  
Max Temperature 69 °F 60 °F 83 °F (1958)
Min Temperature 47 °F 34 °F 20 °F (1976)
Degree Days  
Heating Degree Days 7 18  
Month to date heating degree days 255 229  
Since 1 July heating degree days 348 465  
Cooling Degree Days 0 0  
Month to date cooling degree days 0 0  
Year to date cooling degree days 1107 728  
Growing Degree Days 8 (Base 50)    
Moisture  
Dew Point 41 °F    
Average Humidity 60    
Maximum Humidity 89    
Minimum Humidity 30    
Precipitation  
Precipitation 0.03 in 0.04 in 0.47 in (1980)
Month to date precipitation 0.41 0.52  
Year to date precipitation 5.04 11.36  
Sea Level Pressure  
Sea Level Pressure 29.76 in    
Wind  
Wind Speed 9 mph (SW)    
Max Wind Speed 33 mph    
Max Gust Speed 43 mph    
Visibility 10 miles    
Events Rain    
T = Trace of Precipitation, MM = Missing Value Source: NWS Daily Summary

Daily Weather History Graph

Daily Weather History Graph

Search for Another Location

Airport or City:

Trip Planner

Search our weather history database for the weather conditions in past years. The results will help you decide how hot, cold, wet, or windy it might be!

Date:

Astronomy

Oct. 15, 2012 Rise Set
Actual Time 7:21 AM MDT 6:15 PM MDT
Civil Twilight 6:51 AM MDT 6:46 PM MDT
Nautical Twilight 6:16 AM MDT 7:21 PM MDT
Astronomical Twilight 5:41 AM MDT 7:55 PM MDT
Moon 7:39 AM MDT (10/15) 6:12 PM MDT (10/15)
Length of Visible Light 11h 55m
Length of Day
10h 54m
New Moon, 0% of the Moon is Illuminated
Oct 15
New Moon
Oct 21
First Quarter
Oct 29
Full
Nov 6
Last Quarter
Nov 13
New

Hourly Weather History & Observations

Time (MDT) Temp. Dew Point Humidity Pressure Visibility Wind Dir Wind Speed Gust Speed Precip Events Conditions
12:53 AM 54.0 °F 37.9 °F 55% 29.81 in 10.0 mi SSE 5.8 mph - N/A   Overcast
1:53 AM 55.0 °F 37.0 °F 51% 29.79 in 10.0 mi SSE 6.9 mph - N/A   Clear
2:53 AM 53.1 °F 37.0 °F 55% 29.78 in 10.0 mi SSE 5.8 mph - N/A   Clear
3:53 AM 52.0 °F 37.0 °F 57% 29.77 in 10.0 mi SSE 5.8 mph - N/A   Clear
4:53 AM 51.1 °F 36.0 °F 56% 29.77 in 10.0 mi SSE 5.8 mph - N/A   Clear
5:53 AM 48.9 °F 36.0 °F 61% 29.77 in 10.0 mi South 3.5 mph - N/A   Clear
6:53 AM 48.0 °F 36.0 °F 63% 29.77 in 10.0 mi South 6.9 mph - N/A   Clear
7:53 AM 50.0 °F 35.1 °F 57% 29.77 in 10.0 mi SSW 5.8 mph - N/A   Clear
8:53 AM 50.0 °F 36.0 °F 59% 29.78 in 10.0 mi SSE 4.6 mph - N/A   Clear
9:53 AM 55.9 °F 37.9 °F 51% 29.76 in 10.0 mi SSW 3.5 mph - N/A   Mostly Cloudy
11:53 AM 68.0 °F 36.0 °F 31% 29.72 in 10.0 mi WNW 9.2 mph - N/A   Unknown
12:53 PM 68.0 °F 37.0 °F 32% 29.71 in 10.0 mi WNW 17.3 mph 21.9 mph N/A   Scattered Clouds
1:53 PM 68.0 °F 39.0 °F 35% 29.70 in 10.0 mi WNW 12.7 mph - N/A   Overcast
2:53 PM 66.0 °F 43.0 °F 43% 29.71 in 10.0 mi WNW 29.9 mph 41.4 mph N/A   Overcast
3:53 PM 66.0 °F 43.0 °F 43% 29.73 in 10.0 mi West 21.9 mph 35.7 mph N/A   Mostly Cloudy
4:53 PM 62.1 °F 45.0 °F 53% 29.74 in 10.0 mi NW 21.9 mph 31.1 mph N/A   Mostly Cloudy
5:53 PM 61.0 °F 46.0 °F 58% 29.75 in 10.0 mi West 11.5 mph - N/A   Overcast
6:53 PM 55.9 °F 50.0 °F 80% 29.78 in 10.0 mi West 13.8 mph - 0.01 in Rain Light Rain
7:53 PM 54.0 °F 50.0 °F 86% 29.78 in 10.0 mi WSW 9.2 mph - 0.02 in Rain Light Rain
8:53 PM 53.1 °F 51.1 °F 93% 29.77 in 10.0 mi SW 11.5 mph - 0.00 in   Mostly Cloudy
9:53 PM 53.1 °F 50.0 °F 89% 29.75 in 10.0 mi SW 6.9 mph - N/A   Overcast
10:53 PM 51.1 °F 48.0 °F 89% 29.74 in 10.0 mi Calm Calm - N/A   Scattered Clouds
11:53 PM 51.1 °F 46.0 °F 83% 29.73 in 10.0 mi Calm Calm - N/A   Scattered Clouds